Location: Gostynin
(52.4203°N, 19.4677°E)
Time: 05:23:51
(UTC+02:00)

ISS - Visible Passes

Search period start: 28 May 2018 00:00
Search period end: 07 June 2018 00:00
Orbit: 402 x 407 km, 51.6° (Epoch: 28 May)

Date Brightness Start Highest point End Pass type
(mag) Time Alt. Az. Time Alt. Az. Time Alt. Az.
28 May -1.5 01:07:49 10° W 01:08:21 13° WSW 01:08:21 13° WSW visible
28 May -3.9 22:38:45 10° W 22:42:02 71° S 22:45:05 11° ESE visible
29 May -2.6 00:15:21 10° W 00:17:42 27° SW 00:17:42 27° SW visible
29 May -3.9 21:46:32 10° W 21:49:49 79° S 21:53:06 10° E visible
29 May -3.3 23:23:02 10° W 23:26:08 40° SSW 23:27:06 31° SSE visible
30 May -3.7 22:30:46 10° W 22:33:59 54° SSW 22:36:30 15° ESE visible
31 May -1.8 00:07:44 10° W 00:09:08 16° SW 00:09:08 16° SW visible
31 May -3.8 21:38:30 10° W 21:41:46 67° SSW 21:45:01 10° ESE visible
31 May -2.6 23:15:10 10° W 23:17:56 25° SSW 23:18:34 23° S visible
01 Jun -3.0 22:22:46 10° W 22:25:49 36° SSW 22:28:02 16° SE visible
02 Jun -1.8 23:07:37 10° WSW 23:09:34 15° SW 23:10:09 14° SSW visible
03 Jun -2.2 22:14:53 10° W 22:17:30 22° SSW 22:19:40 12° SSE visible
05 Jun -1.4 22:07:29 10° WSW 22:09:02 13° SW 22:10:35 10° SSW visible
